Terminal Aerodrome Forecast
Issued by NWS Chicago, IL

Home | Current Version | Previous Version | Graphics & Text | Print | Product List | Glossary On
Versions: 1 2 3 4 5 6 7 8 9 10 11 12 13 14 15 16 17 18 19 20 21 22 23
208
FTUS43 KLOT 190900 AAA
TAFRFD
TAF AMD
KRFD 190900Z 1909/2006 21008KT P6SM BKN250 WS020/26040KT
     FM191300 21013G22KT P6SM SCT250
     FM191700 21015G25KT P6SM SCT250=

USA.gov is the U.S. government's official web portal to all federal, state and local government web resources and services.